#timestamp,LO_Frequency,Hit,StdDev 
1608577215.0,286046999.5,P
1608577215.9,286046999.5,P
1608577235.8,286046998.7,P
1608577255.6,286046999.4,N
1608577275.4,286046999.4,N
1608577295.3,286046999.0,Y
1608577315.1,286046999.5,P
1608577335.8,286046999.0,P
1608577355.7,286046999.5,N
1608577375.5,286046999.5,N
1608577395.3,286046999.5,N
1608577415.2,286046996.9,Y
1608577435.0,286046998.9,P
1608577435.9,286046998.9,P
1608577455.7,286046999.2,P
1608577475.6,286046999.1,Y
1608577495.4,286046998.8,P
1608577515.2,286046999.3,P
1608577535.1,286046997.3,P
1608577536.0,286046997.3,Y
1608577555.8,286046999.4,P
1608577575.6,286046997.0,P
1608577595.5,286046999.3,N
1608577615.3,286046999.2,N
1608577635.1,286046999.6,N
1608577655.9,286046999.1,N
1608577675.7,286046997.1,Y
1608577695.5,286046996.9,P
1608577715.4,286046997.0,P
1608577735.2,286046998.7,N
1608577755.0,286046998.9,N
1608577755.9,286046998.9,N
1608577775.8,286046999.4,N
1608577795.6,286046999.1,N
1608577815.4,286046996.6,Y
1608577835.3,286046998.3,P
1608577855.1,286046998.6,P
1608577856.0,286046998.6,P
1608577875.8,286046999.3,Y
1608577895.7,286047002.3,P
1608577915.5,286046998.6,N
1608577935.3,286047000.2,N
1608577955.2,286047000.2,N
1608577975.9,286047000.7,N
1608577995.7,286047000.8,N
1608578015.6,286047001.2,N
1608578035.4,286046999.0,N
1608578055.2,286046998.8,N
1608578075.1,286046999.3,N
1608578076.0,286046999.3,N
1608578095.8,286046998.6,N
1608578115.6,286046999.6,N
1608578135.5,286046996.9,N
1608578155.3,286046997.3,N
1608578175.1,286046997.4,N
1608578195.9,286046997.1,N
1608578215.7,286046997.8,N
1608578235.5,286046995.3,Y
1608578255.4,286046997.7,P
1608578275.2,286046997.2,P
1608578295.0,286046997.9,N
1608578295.9,286046997.9,N
1608578315.8,286046995.4,Y
1608578335.6,286046999.0,P
1608578355.4,286046999.2,N
1608578375.3,286046996.7,P
1608578395.1,286046997.1,N
1608578396.0,286046997.1,N
1608578415.8,286046996.6,Y
1608578435.7,286047000.6,P
1608578455.5,286047001.2,N
1608578475.3,286046999.7,N
1608578495.1,286047002.8,N
1608578515.9,286047000.4,N
1608578535.7,286046998.6,N
1608578555.5,286047000.8,N
1608578575.4,286046997.0,N
1608578595.2,286046999.0,N
1608578615.0,286046998.8,N
1608578615.9,286046998.8,N
1608578635.8,286046998.3,N
1608578655.6,286046996.8,N
1608578675.4,286046997.7,N
1608578695.3,286046997.8,N
1608578715.1,286046995.2,Y
1608578735.8,286046997.0,P
1608578755.7,286046999.4,N
1608578775.5,286046999.2,N
1608578795.3,286046998.6,N
1608578815.2,286046998.8,N
1608578835.9,286046999.1,N
1608578855.7,286046996.6,Y
1608578875.6,286046998.3,P
1608578895.4,286046999.6,N
1608578915.2,286046998.9,N
1608578935.1,286046998.4,Y
1608578936.0,286046998.4,P
1608578955.8,286047000.9,P
1608578975.6,286047000.4,N
1608578995.5,286047001.2,N
1608579015.3,286046998.6,N
1608579035.1,286046999.9,N
1608579055.9,286047000.8,N
1608579075.7,286046999.8,N
1608579095.5,286047001.2,N
1608579115.4,286046998.8,N
1608579135.2,286047000.2,N
1608579185.1,286047002.3,E
1608579195.9,286047000.8,N
1608579215.7,286046999.2,P
1608579235.5,286046998.8,N
1608579255.4,286046998.2,N
1608579275.2,286046998.7,N
1608579295.0,286046998.4,N
1608579295.9,286046998.4,N
1608579315.8,286046998.7,N
1608579335.6,286047000.8,N
1608579355.4,286046999.4,N
1608579375.3,286046998.2,N
1608579395.1,286046999.4,N
1608579396.0,286046999.4,N
1608579415.8,286046999.1,N
1608579435.7,286046998.9,N
1608579455.5,286046999.2,N
1608579475.3,286047001.1,N
1608579495.2,286047000.9,N
1608579515.9,286047000.8,N
1608579535.7,286047000.5,N
1608579555.6,286047000.8,N
1608579575.4,286046998.2,N
1608579595.2,286047000.2,N
1608579615.1,286046999.7,N
1608579616.0,286046999.7,N
1608579635.8,286047000.5,N
1608579655.6,286046999.9,N
1608579675.5,286047000.1,N
1608579695.3,286047002.4,N
1608579715.1,286047004.3,Y
1608579735.9,286047001.4,P
1608579755.7,286047003.1,P
1608579775.5,286047003.0,N
1608579795.3,286047003.5,N
1608579815.2,286047003.7,N
1608579835.0,286047005.0,Y
1608579835.9,286047005.0,P
1608579855.7,286047001.6,N
1608579875.6,286047003.8,N
1608579895.4,286047001.6,N
1608579915.2,286047003.5,N
1608579935.1,286047003.8,Y
1608579936.0,286047003.8,P
1608579955.8,286046998.1,P
1608579975.6,286047000.7,N
1608579995.5,286047000.5,N
1608580015.3,286047000.4,N
1608580035.1,286046999.7,N
1608580055.9,286047004.4,N
1608580075.7,286047002.3,N
1608580095.5,286047004.4,N
1608580115.4,286047003.2,N
1608580135.2,286047001.3,N
1608580155.0,286047001.7,N
1608580155.9,286047001.7,N
1608580175.8,286047004.2,N
1608580195.6,286047002.1,N
1608580215.4,286047001.8,N
1608580235.3,286047004.4,N
1608580255.1,286047004.3,N
1608580256.0,286047004.3,N
1608580275.8,286047004.4,N
1608580295.7,286047001.5,N
1608580315.5,286047003.2,N
1608580335.3,286047005.6,Y
1608580355.2,286047002.2,P
1608580375.9,286047002.7,P
1608580395.7,286047004.3,P
1608580415.6,286047003.9,Y
1608580435.4,286047000.4,P
1608580455.2,286047002.6,N
1608580475.1,286047002.0,N
1608580476.0,286047002.0,N
1608580495.8,286047001.8,N
1608580515.6,286047001.6,N
1608580535.5,286047001.8,N
1608580555.3,286047001.6,N
1608580575.1,286047002.4,Y
1608580595.9,286046998.6,P
1608580615.7,286047000.5,N
1608580635.5,286047000.9,N
1608580655.4,286046998.5,N
1608580675.2,286047000.1,N
1608580695.0,286047001.4,N
1608580695.9,286047001.4,N
1608580715.8,286047004.4,Y
1608580735.6,286047001.5,P
1608580755.4,286047002.6,P
1608580775.3,286047002.2,N
1608580795.1,286047004.3,Y
1608580796.0,286047004.3,P
